Location: Saratoga Springs
(43.0831°N, 73.7850°W)
Time: 06:02:40
(UTC-04:00)

Vanguard 2 Rocket - Pass Details

Date: 24 April 2024
Orbit: 556 x 3304 km, 32.9° (Epoch: 20 May)

Event Time Altitude Azimuth Distance (km) Brightness Sun altitude
Rises 03:39:22 0° 280° (W) 7,244 11.2 -22.2°
Reaches altitude 10° 03:45:11 10° 271° (W) 6,262 10.7 -21.5°
Maximum altitude 04:00:30 29° 221° (SW) 4,417 9.7 -19.4°
Drops below altitude 10° 04:12:49 10° 168° (SSE) 4,971 10.4 -17.7°
Sets 04:16:49 0° 158° (SSE) 5,595 10.8 -17.1°
